STARLINK-35554 (66239 NORAD) Tracking and Keplerian Element Data

This shows tracking and keplerian element data for the satellite.

Feedback or suggestion? Click here.




ElementValue
Catalog66239
NameSTARLINK-35554
Epoch Orbit889
Epoch Day354.10799434
Epoch Year2025
RAAN294.866
Inclination53.1622
Eccentricity0.0001292
Argument of Perigee71.2011
Mean Anonmoly288.9134
Mean Motion15.39627221
Decay Rate0.00026307
L11 66239U 25245F 25354.10799434 .00026307 00000+0 66522-3 0 9991
L22 66239 53.1622 294.8660 0001292 71.2011 288.9134 15.39627221 8896



Live tracking and technical data element details for STARLINK-35554 (NORAD 66239). STARLINK-35554 can be tracked NOW for your location showing map with azimuth and elevation plus other details from your city location.







IsCatalogInMostPopularTable: catalog: 66239, numindb: 6
Update: records affected: 1



GetName: 66239 STARLINK-35554

Hit Count: updated at: Tue, 10 Feb 2026 03:50:25 GMT